Location: Le Hiès Ruisseau
(43.3000°N, 0.4500°W)
Time: 13:15:07
(UTC+00:00)

Cosmos 1980 Rocket - Pass Details

Date: 28 January 2023
Orbit: 828 x 851 km, 71.0° (Epoch: 19 March)

Event Time Altitude Azimuth Distance (km) Brightness Sun altitude
Rises 18:30:14 0° 216° (SW) 3,373 6.1 -15.1°
Reaches altitude 10° 18:32:43 10° 221° (SW) 2,446 5.4 -15.5°
Maximum altitude 18:38:13 55° 299° (WNW) 1,004 2.9 -16.5°
Drops below altitude 10° 18:43:48 10° 17° (NNE) 2,476 4.4 -17.5°
Enters shadow 18:45:15 - 20° (NNE) 3,014 4.8 -17.8°
